Weather History for KHLN - July, 2013

Change the Weather History Date:

Wednesday, July 3, 2013

  Actual Average Record
Temperature  
Mean Temperature 79 °F 67 °F  
Max Temperature 95 °F 82 °F 98 °F (2015)
Min Temperature 63 °F 52 °F 42 °F (1997)
Degree Days  
Heating Degree Days 0 2  
Month to date heating degree days 0 6  
Since 1 June heating degree days 146 142  
Since 1 July heating degree days 0 6  
Cooling Degree Days 14 4  
Month to date cooling degree days 45 12  
Year to date cooling degree days 94 69  
Since 1 June cooling degree days 87 61  
Growing Degree Days 30 (Base 50)    
Moisture  
Dew Point 49 °F    
Average Humidity 45    
Maximum Humidity 73    
Minimum Humidity 17    
Precipitation  
Precipitation 0.00 in 0.04 in 1.00 in (1902)
Month to date precipitation 0.00 0.13  
Year to date precipitation 5.53 6.29  
Snow  
Snow 0.00 in 0.00 in 0.00 in (2000)
Month to date snowfall 0.0 0.0  
Since 1 June snowfall 0.0 T  
Since 1 July snowfall 0.0 0.0  
Snow Depth 0.00 in    
Sea Level Pressure  
Sea Level Pressure 29.90 in    
Wind  
Wind Speed 9 mph (West)    
Max Wind Speed 26 mph    
Max Gust Speed 32 mph    
Visibility 10 miles    
Events      
T = Trace of Precipitation, MM = Missing Value Source: NWS Daily Summary

Daily Weather History Graph

Daily Weather History Graph

Search for Another Location

Airport or City:

Trip Planner

Search our weather history database for the weather conditions in past years. The results will help you decide how hot, cold, wet, or windy it might be!

Date:

Astronomy

Jul. 03, 2013 Rise Set
Actual Time 5:40 AM MDT 9:24 PM MDT
Civil Twilight 5:01 AM MDT 10:03 PM MDT
Nautical Twilight 4:08 AM MDT 10:55 PM MDT
Astronomical Twilight 2:54 AM MDT 12:08 AM MDT
Moon 2:27 AM MDT (7/3) 5:32 PM MDT (7/3)
Length of Visible Light 17h 01m
Length of Day
15h 44m
Waning Crescent, 18% of the Moon is Illuminated
Jul 3
Waning Crescent
Jul 8
New
Jul 15
First Quarter
Jul 22
Full
Jul 29
Last Quarter

Hourly Weather History & Observations

Time (MDT) Temp. Heat Index Dew Point Humidity Pressure Visibility Wind Dir Wind Speed Gust Speed Precip Events Conditions
12:53 AM 71.1 °F - 55.0 °F 57% 29.92 in 10.0 mi WNW 3.5 mph - N/A   Clear
1:53 AM 70.0 °F - 57.0 °F 63% 29.92 in 10.0 mi Calm Calm - N/A   Clear
2:53 AM 68.0 °F - 55.9 °F 65% 29.92 in 10.0 mi Calm Calm - N/A   Clear
3:53 AM 66.0 °F - 57.0 °F 73% 29.92 in 10.0 mi Calm Calm - N/A   Clear
4:53 AM 69.1 °F - 55.9 °F 63% 29.91 in 10.0 mi Calm Calm - N/A   Clear
5:53 AM 73.0 °F - 55.0 °F 53% 29.94 in 10.0 mi WSW 8.1 mph - N/A   Clear
6:53 AM 64.0 °F - 55.9 °F 75% 29.97 in 10.0 mi Calm Calm - N/A   Clear
7:53 AM 80.1 °F 79.9 °F 53.1 °F 39% 29.94 in 10.0 mi West 5.8 mph - N/A   Clear
8:53 AM 79.0 °F - 55.9 °F 45% 29.97 in 10.0 mi Variable 4.6 mph - N/A   Clear
9:45 AM 84.2 °F - 51.8 °F 33% 30.04 in 10.0 mi West 12.7 mph 23.0 mph N/A   Clear
9:53 AM 87.1 °F 84.9 °F 53.1 °F 31% 29.95 in 10.0 mi West 9.2 mph - N/A   Clear
10:53 AM 87.1 °F 85.1 °F 54.0 °F 32% 29.94 in 10.0 mi Variable 6.9 mph 20.7 mph N/A   Partly Cloudy
11:53 AM 91.0 °F - 48.9 °F 23% 29.92 in 10.0 mi West 17.3 mph 25.3 mph N/A   Partly Cloudy
12:53 PM 91.0 °F - 46.0 °F 21% 29.91 in 10.0 mi WNW 21.9 mph 27.6 mph N/A   Clear
1:53 PM 93.0 °F - 46.0 °F 20% 29.90 in 10.0 mi West 21.9 mph 28.8 mph N/A   Clear
2:53 PM 91.0 °F - 45.0 °F 20% 29.89 in 10.0 mi West 16.1 mph 25.3 mph N/A   Clear
3:53 PM 91.0 °F - 43.0 °F 19% 29.88 in 10.0 mi WNW 16.1 mph 27.6 mph N/A   Clear
4:53 PM 93.0 °F - 45.0 °F 19% 29.85 in 10.0 mi WNW 16.1 mph 23.0 mph N/A   Clear
5:53 PM 93.9 °F - 42.1 °F 17% 29.82 in 10.0 mi WNW 17.3 mph 24.2 mph N/A   Clear
6:53 PM 91.9 °F - 43.0 °F 18% 29.83 in 10.0 mi WNW 13.8 mph - N/A   Clear
7:53 PM 90.0 °F - 43.0 °F 19% 29.81 in 10.0 mi West 10.4 mph - N/A   Clear
8:53 PM 84.0 °F - 43.0 °F 24% 29.83 in 10.0 mi WNW 8.1 mph - N/A   Clear
9:53 PM 80.1 °F - 39.9 °F 24% 29.83 in 10.0 mi WSW 6.9 mph - N/A   Clear
10:53 PM 75.9 °F - 41.0 °F 29% 29.86 in 10.0 mi WNW 4.6 mph - N/A   Clear
11:53 PM 73.9 °F - 42.1 °F 32% 29.86 in 10.0 mi Calm Calm - N/A   Clear